Dewpoint
-9 -9 -12 -20 -18 -11 -8 -9 -9 -10 -11 -11 -12 -12 -11 -11 -12 -12 -12 -12 -12 -12 -12 -12 -12 -12 -12 -12 -12 -12 -12 -12 -12 -13 -13 -13 -14 -14 -14 -14 -14 -15 -15 -15 -16 -16 -17 -17 -17 -18 -18 -18
-9 -9 -12 -20 -19 -11 -9 -8 -9 -10 -10 -12 -12 -12 -12 -11 -12 -12 -12 -12 -13 -12 -12 -12 -12 -12 -12 -12 -12 -12 -12 -12 -12 -12 -13 -13 -13 -14 -14 -14 -14 -14 -14 -15 -15 -16 -16 -16 -17 -17 -18 -18
-9 -9 -12 -19 -20 -12 -9 -8 -9 -10 -11 -11 -12 -12 -12 -12 -12 -12 -12 -12 -13 -12 -13 -13 -13 -13 -13 -13 -13 -12 -12 -12 -13 -13 -13 -13 -13 -13 -14 -14 -15 -15 -15 -15 -14 -15 -15 -16 -16 -16 -17 -17
-10 -9 -11 -17 -22 -14 -9 -9 -9 -9 -10 -11 -11 -11 -11 -11 -11 -12 -12 -12 -13 -13 -13 -13 -13 -13 -13 -13 -13 -13 -13 -13 -12 -13 -13 -13 -13 -13 -14 -14 -14 -14 -14 -15 -14 -15 -15 -15 -15 -15 -16 -16
-10 -9 -10 -15 -22 -17 -11 -9 -9 -9 -10 -11 -11 -11 -11 -11 -11 -12 -12 -13 -13 -13 -13 -13 -13 -13 -13 -13 -14 -13 -13 -13 -13 -13 -13 -13 -13 -13 -13 -14 -14 -14 -14 -14 -15 -14 -15 -14 -15 -15 -15 -16
-11 -9 -9 -13 -21 -21 -13 -9 -9 -10 -10 -10 -11 -11 -12 -12 -12 -12 -12 -12 -13 -13 -12 -13 -13 -13 -14 -14 -14 -14 -13 -13 -13 -13 -13 -13 -13 -13 -13 -14 -14 -14 -14 -14 -14 -14 -15 -15 -14 -15 -14 -15
-11 -10 -9 -11 -19 -24 -16 -11 -9 -10 -10 -10 -11 -11 -12 -12 -12 -12 -11 -12 -12 -13 -13 -13 -14 -14 -14 -14 -14 -14 -14 -13 -14 -13 -13 -13 -13 -14 -13 -14 -14 -14 -14 -14 -14 -14 -14 -15 -14 -15 -14 -14
-11 -10 -9 -11 -18 -26 -21 -14 -11 -10 -10 -10 -11 -12 -12 -12 -12 -11 -11 -11 -12 -12 -13 -13 -14 -14 -14 -14 -14 -14 -14 -13 -14 -14 -13 -13 -13 -14 -14 -14 -14 -14 -14 -14 -14 -14 -14 -15 -15 -15 -15 -15
-11 -9 -8 -10 -16 -24 -25 -18 -13 -11 -11 -11 -11 -12 -12 -12 -12 -12 -12 -11 -12 -12 -13 -14 -14 -15 -15 -14 -15 -14 -14 -14 -14 -14 -13 -13 -13 -14 -14 -14 -14 -14 -14 -14 -14 -14 -14 -14 -15 -15 -15 -15
-10 -9 -8 -10 -14 -21 -26 -23 -18 -15 -13 -12 -12 -12 -13 -13 -14 -14 -14 -13 -13 -14 -14 -15 -16 -16 -15 -15 -15 -14 -14 -14 -13 -14 -13 -13 -13 -13 -14 -14 -14 -14 -14 -14 -14 -14 -14 -14 -14 -14 -15 -14
-10 -9 -8 -9 -12 -18 -24 -25 -23 -19 -17 -16 -15 -15 -16 -17 -17 -17 -17 -17 -16 -17 -17 -17 -17 -16 -16 -16 -16 -15 -15 -14 -14 -13 -13 -13 -13 -13 -13 -14 -14 -14 -14 -14 -14 -14 -14 -14 -14 -14 -14 -14
-10 -9 -9 -9 -10 -15 -21 -24 -25 -24 -22 -20 -20 -19 -20 -20 -21 -21 -19 -19 -19 -19 -18 -17 -16 -16 -16 -16 -15 -15 -14 -14 -13 -13 -13 -12 -13 -13 -13 -13 -14 -14 -14 -14 -14 -14 -14 -14 -14 -14 -14 -14
-11 -9 -9 -9 -10 -14 -20 -22 -23 -23 -22 -22 -21 -20 -20 -20 -20 -19 -18 -17 -17 -17 -16 -15 -14 -14 -14 -14 -14 -14 -14 -13 -13 -13 -13 -12 -13 -13 -13 -13 -14 -14 -14 -14 -14 -14 -14 -14 -13 -14 -13 -13
-12 -11 -9 -9 -10 -13 -17 -19 -20 -20 -19 -18 -17 -17 -17 -16 -15 -14 -13 -13 -13 -13 -13 -13 -12 -12 -13 -13 -13 -13 -13 -12 -12 -13 -12 -12 -13 -13 -13 -14 -14 -14 -14 -14 -13 -13 -13 -13 -13 -13 -13 -13
-14 -12 -10 -9 -9 -11 -13 -14 -15 -14 -14 -13 -12 -12 -12 -11 -11 -10 -10 -11 -11 -11 -11 -11 -11 -11 -11 -12 -12 -12 -12 -12 -12 -12 -12 -12 -13 -13 -14 -14 -14 -14 -14 -13 -13 -13 -12 -12 -13 -12 -13 -13
-16 -14 -12 -10 -10 -10 -10 -10 -11 -11 -10 -10 -10 -10 -10 -10 -10 -10 -10 -10 -10 -11 -11 -11 -11 -11 -11 -11 -12 -12 -11 -12 -12 -12 -12 -12 -13 -14 -14 -14 -14 -13 -13 -12 -12 -12 -12 -12 -12 -12 -12 -12
-18 -16 -15 -13 -12 -11 -10 -10 -10 -10 -10 -10 -10 -11 -11 -11 -11 -12 -11 -11 -11 -11 -11 -11 -11 -11 -11 -11 -11 -12 -12 -11 -12 -12 -12 -12 -13 -13 -14 -13 -12 -12 -11 -11 -11 -11 -11 -11 -11 -11 -12 -11
-19 -18 -17 -16 -15 -13 -13 -12 -12 -12 -12 -13 -13 -13 -13 -13 -13 -13 -12 -12 -11 -11 -12 -12 -12 -12 -12 -11 -11 -12 -12 -12 -12 -12 -12 -13 -13 -13 -13 -12 -11 -11 -11 -11 -11 -11 -10 -10 -10 -10 -10 -11
-20 -18 -18 -16 -16 -16 -15 -15 -14 -14 -14 -14 -14 -14 -14 -14 -14 -14 -14 -13 -12 -12 -12 -12 -13 -12 -12 -12 -12 -12 -12 -12 -12 -12 -13 -13 -13 -12 -12 -11 -11 -11 -11 -11 -10 -10 -9 -9 -9 -9 -10 -10
-20 -19 -18 -17 -17 -16 -16 -16 -16 -16 -15 -15 -15 -15 -15 -15 -15 -16 -15 -14 -14 -14 -13 -13 -13 -13 -13 -12 -13 -13 -13 -13 -13 -12 -13 -13 -12 -11 -11 -10 -11 -11 -10 -9 -9 -9 -9 -9 -9 -9 -9 -9
-20 -19 -19 -18 -18 -17 -17 -17 -17 -16 -16 -16 -16 -16 -16 -16 -17 -17 -16 -15 -14 -14 -14 -13 -14 -14 -13 -13 -13 -13 -14 -13 -13 -13 -13 -12 -11 -11 -10 -10 -10 -10 -9 -8 -8 -8 -8 -8 -8 -8 -8 -8
-19 -19 -20 -19 -19 -19 -18 -19 -18 -17 -17 -17 -17 -16 -17 -17 -16 -16 -15 -15 -14 -14 -14 -14 -14 -14 -14 -13 -14 -14 -14 -14 -13 -13 -12 -11 -11 -10 -10 -10 -10 -9 -9 -8 -8 -8 -8 -8 -7 -8 -8 -7
-16 -18 -19 -19 -20 -20 -20 -21 -19 -17 -17 -17 -17 -17 -17 -16 -16 -15 -14 -14 -14 -14 -14 -14 -14 -14 -14 -14 -13 -14 -14 -14 -13 -12 -12 -10 -10 -10 -10 -10 -9 -9 -8 -8 -8 -7 -7 -7 -7 -7 -7 -7
-14 -15 -16 -17 -18 -18 -20 -20 -18 -18 -18 -18 -18 -18 -17 -16 -15 -15 -15 -14 -14 -14 -14 -14 -14 -14 -14 -13 -13 -13 -13 -13 -12 -11 -11 -10 -10 -10 -9 -9 -9 -8 -8 -8 -7 -7 -7 -7 -7 -7 -7 -7
-11 -12 -13 -14 -15 -16 -18 -18 -18 -18 -19 -19 -19 -18 -18 -17 -16 -16 -15 -15 -14 -14 -14 -14 -14 -14 -13 -13 -13 -13 -13 -12 -12 -11 -10 -10 -10 -10 -9 -9 -9 -8 -8 -8 -8 -7 -7 -7 -7 -7 -7 -7
-9 -9 -10 -12 -13 -15 -16 -17 -18 -18 -19 -19 -19 -19 -19 -18 -16 -16 -16 -15 -14 -14 -14 -13 -13 -13 -13 -13 -13 -12 -12 -12 -11 -11 -10 -9 -9 -9 -9 -9 -9 -8 -8 -8 -8 -7 -7 -7 -7 -7 -7 -7
-8 -8 -9 -11 -12 -13 -14 -15 -15 -16 -17 -17 -18 -18 -18 -18 -17 -16 -15 -14 -14 -13 -13 -13 -13 -13 -12 -12 -12 -12 -12 -11 -11 -10 -9 -9 -9 -9 -9 -9 -8 -8 -8 -8 -8 -7 -7 -7 -7 -7 -7 -7
-6 -7 -8 -9 -10 -12 -11 -12 -12 -13 -14 -13 -15 -16 -17 -18 -16 -15 -15 -14 -13 -13 -13 -13 -13 -12 -12 -12 -11 -11 -11 -11 -11 -10 -9 -9 -9 -9 -9 -8 -8 -8 -8 -8 -7 -7 -7 -7 -7 -7 -7 -7
-5 -5 -6 -7 -8 -9 -9 -9 -10 -11 -10 -9 -10 -12 -14 -16 -16 -14 -14 -14 -13 -13 -13 -13 -13 -12 -12 -11 -11 -11 -11 -11 -10 -10 -9 -9 -9 -9 -8 -8 -8 -8 -8 -7 -7 -7 -7 -7 -7 -7 -7 -7
-4 -4 -5 -6 -6 -7 -8 -8 -8 -8 -8 -7 -8 -9 -11 -13 -15 -14 -13 -13 -12 -12 -12 -12 -12 -12 -11 -11 -11 -11 -10 -10 -10 -10 -9 -9 -8 -8 -8 -8 -8 -8 -7 -7 -7 -7 -7 -7 -7 -7 -7 -8
-4 -4 -4 -5 -5 -5 -6 -6 -6 -6 -6 -7 -7 -7 -8 -8 -11 -13 -13 -13 -12 -12 -11 -12 -12 -11 -11 -11 -10 -10 -10 -10 -10 -9 -9 -8 -8 -8 -8 -7 -7 -7 -7 -7 -7 -7 -6 -6 -7 -7 -7 -8
Wind_Speed
9 9 9 10 11 11 10 9 9 8 8 8 7 6 6 7 8 8 8 9 9 10 10 10 10 10 11 11 10 11 11 11 11 12 12 13 13 13 14 14 14 15 15 16 16 16 16 16 16 16 16 16
10 9 10 11 12 12 11 11 10 10 9 9 8 7 6 8 9 10 10 10 10 10 10 11 11 11 11 11 10 10 11 11 11 12 12 13 13 13 14 14 14 15 15 16 16 16 16 16 16 16 16 16
10 10 10 11 13 13 12 12 11 11 10 10 9 8 8 9 10 11 12 13 13 12 11 11 11 11 11 11 11 11 11 11 12 12 13 13 13 14 14 14 14 14 15 15 16 16 17 16 16 16 16 16
11 11 11 12 14 14 13 13 12 12 11 11 11 10 10 10 11 13 14 15 15 14 13 13 12 12 12 12 12 12 12 12 13 13 13 13 14 14 14 14 14 15 15 15 15 16 16 16 17 16 16 16
12 12 12 13 14 15 15 14 14 13 13 12 12 12 12 12 13 14 16 17 17 17 16 15 14 14 13 13 13 13 13 14 14 14 15 14 14 15 14 15 15 15 15 16 16 16 15 16 16 16 16 16
13 13 13 14 15 16 17 16 15 15 14 14 13 13 14 14 15 16 17 18 19 19 18 17 16 15 15 15 15 15 15 15 16 16 16 16 16 16 16 15 16 16 16 16 16 16 16 15 16 16 16 16
14 14 15 15 16 17 18 18 17 16 15 15 15 15 16 16 17 18 18 19 20 20 20 19 18 17 16 16 16 16 17 17 18 18 18 18 18 17 17 17 17 17 17 17 17 17 17 17 16 16 17 17
15 15 15 16 17 18 19 19 19 18 17 17 17 17 17 18 19 19 20 20 21 22 21 21 20 19 18 17 17 17 17 18 19 19 19 20 19 19 19 19 18 18 18 18 19 19 19 19 18 18 18 18
15 15 16 17 18 18 19 20 20 20 19 19 19 19 19 20 20 21 21 22 23 23 23 22 21 20 19 19 18 18 18 19 19 20 20 21 21 21 20 20 20 20 19 20 20 20 20 20 20 20 19 19
16 16 16 17 18 19 19 20 21 21 21 21 21 21 21 22 22 23 23 23 24 24 24 23 23 22 21 20 19 19 19 19 20 20 21 21 22 22 22 21 21 21 21 21 21 21 21 21 21 21 21 20
17 16 17 18 18 19 19 20 21 21 22 22 22 22 22 23 23 23 24 24 25 25 24 24 23 23 22 21 20 20 20 20 21 21 21 22 22 22 22 22 22 22 22 22 22 22 22 22 22 22 23 22
17 17 18 18 19 19 19 20 20 21 22 22 22 22 23 23 24 24 24 25 25 26 25 25 25 24 23 22 21 21 21 21 22 22 22 22 23 23 23 22 22 22 22 22 23 23 23 23 24 24 24 25
17 17 18 18 19 19 20 20 20 21 21 21 22 23 23 24 24 25 25 25 26 26 26 26 26 25 24 23 22 22 22 22 23 23 23 24 24 24 23 23 23 23 23 23 23 23 24 24 24 25 25 26
17 17 18 18 19 20 20 20 20 22 22 22 23 23 24 25 26 26 26 26 27 27 27 27 27 26 25 24 23 23 22 23 23 24 24 24 25 25 24 24 24 24 24 23 23 24 24 24 24 25 25 26
18 18 18 18 20 21 21 21 22 23 23 23 24 24 25 26 27 27 27 27 27 28 28 28 27 26 26 25 24 24 23 23 24 24 25 25 25 25 25 25 25 25 25 24 24 24 24 24 25 25 25 26
19 19 19 19 21 22 22 22 24 24 24 24 24 25 26 27 27 28 28 28 28 28 29 28 28 27 26 25 25 25 24 24 25 25 25 26 26 26 26 25 25 25 26 26 25 25 24 25 25 25 25 26
20 19 19 20 21 22 23 24 25 25 25 25 25 26 27 27 27 28 28 28 28 29 29 29 28 27 27 26 26 26 25 25 25 26 26 26 26 26 26 26 25 26 26 26 25 24 23 24 24 24 25 25
20 20 20 21 22 22 23 24 25 25 25 25 25 26 27 27 27 27 28 28 29 29 30 29 28 28 27 26 27 26 26 26 25 26 27 27 27 26 26 26 25 26 26 25 25 23 23 23 23 24 25 25
21 20 21 21 22 23 23 24 25 25 25 25 25 26 27 27 27 27 28 28 29 30 30 30 29 29 28 27 28 27 26 26 26 26 27 27 27 26 25 26 25 25 25 24 25 24 24 24 24 25 25 25
21 22 22 22 23 23 24 25 26 25 25 25 26 27 28 27 27 27 27 28 28 30 30 30 30 29 29 28 28 28 27 27 27 26 27 27 27 27 26 26 25 25 25 26 26 26 25 24 24 25 25 25
22 23 23 24 25 25 26 26 27 26 25 26 27 27 28 27 27 27 28 28 29 30 31 31 30 29 29 29 29 28 28 28 27 27 27 27 27 28 28 26 26 26 26 27 27 26 25 24 25 25 24 24
24 24 25 26 27 27 28 28 27 26 26 26 27 27 28 28 28 28 28 29 30 31 31 31 31 30 29 29 29 29 29 28 28 28 28 28 27 28 28 28 27 27 27 28 28 28 26 25 25 25 24 25
26 26 27 28 28 29 29 29 28 26 27 27 27 28 28 29 30 30 29 30 31 32 32 32 32 30 29 30 30 30 29 29 29 29 29 30 29 28 29 29 28 29 29 30 30 30 29 27 27 26 26 27
28 28 28 29 29 30 29 29 28 27 28 28 29 30 30 31 32 31 31 31 32 32 32 33 32 31 30 30 30 30 30 30 29 30 30 30 30 29 29 29 29 30 31 32 33 33 32 29 29 30 30 30
30 30 30 30 30 30 29 29 29 30 30 31 31 31 32 33 33 32 32 32 32 32 33 33 33 32 31 31 31 31 31 30 30 31 31 31 31 30 30 30 30 31 33 35 36 36 35 33 33 33 33 31
32 32 32 32 31 31 30 30 31 32 32 33 34 34 35 35 34 34 33 32 32 32 33 33 33 33 32 32 32 33 32 32 32 32 32 32 32 32 32 32 31 32 34 36 38 39 40 39 37 35 35 35
34 34 34 34 33 32 32 33 33 34 34 35 36 36 37 36 35 34 33 32 32 33 33 33 34 33 33 33 33 34 34 34 33 33 33 33 34 34 34 35 34 34 34 37 39 38 36 37 38 39 38 34
36 37 37 36 35 35 35 36 36 36 36 36 37 37 37 37 35 34 33 33 33 33 33 34 34 34 34 34 34 35 36 35 35 34 34 34 35 36 37 38 37 36 36 38 38 34 32 33 32 32 31 30
39 39 39 39 38 38 38 38 38 39 38 37 38 38 38 37 35 35 35 34 34 35 35 35 35 35 35 35 35 36 37 37 36 36 36 36 37 38 39 40 40 40 39 39 39 35 34 30 24 26 31 35
40 41 41 42 41 41 42 41 41 40 39 38 39 39 39 38 38 37 37 37 36 36 37 37 37 37 37 36 36 37 38 38 38 38 38 38 39 40 40 41 43 44 42 41 41 40 39 34 29 35 39 36
35 39 41 43 44 44 44 45 44 42 42 41 41 41 40 40 40 40 40 39 38 37 38 39 39 39 39 39 38 38 39 40 40 40 40 40 41 41 41 42 44 46 44 42 43 41 40 39 37 37 38 35
Wind_Direction
298 283 265 250 243 242 246 253 264 274 288 300 309 320 328 330 331 333 333 334 336 337 338 339 341 343 345 348 352 355 353 349 346 345 343 342 341 341 342 342 342 340 340 339 341 342 342 342 342 341 340 340
298 283 266 253 245 243 247 253 262 272 283 291 298 307 315 320 321 324 323 321 323 327 331 332 334 337 338 340 343 344 343 340 337 335 335 335 335 335 335 335 336 335 334 335 335 336 337 339 340 340 340 340
297 283 267 255 247 244 247 253 261 270 279 285 292 300 306 310 314 317 317 316 316 318 322 324 326 328 330 333 335 335 334 331 329 328 329 329 329 329 330 329 330 330 330 331 332 333 334 335 337 339 340 339
297 284 268 256 249 246 248 254 261 269 276 282 288 295 299 302 305 310 313 313 313 312 314 316 320 321 324 326 327 328 327 326 324 323 323 324 324 324 324 325 325 325 327 328 329 330 331 332 332 334 335 336
295 283 269 259 252 247 249 254 260 267 274 279 285 291 294 297 300 304 308 309 309 308 309 311 314 316 318 320 321 323 323 322 321 320 320 320 320 320 321 322 322 323 325 325 325 326 326 327 327 327 328 330
293 283 271 262 256 250 250 254 260 266 271 277 282 287 292 295 297 299 301 304 305 305 306 307 308 311 313 315 318 319 320 319 319 318 317 317 317 318 318 319 320 320 320 320 320 320 320 321 321 322 323 324
290 283 273 264 259 253 251 254 259 266 270 276 281 287 291 293 294 295 296 299 301 302 303 304 304 306 309 311 314 315 317 317 316 316 315 316 316 316 316 316 317 316 316 316 316 317 317 318 318 318 319 320
287 280 272 265 262 257 254 255 259 265 270 275 281 285 289 290 291 292 294 296 298 299 299 300 301 302 305 307 310 311 313 314 314 314 313 314 314 314 314 313 313 313 313 313 314 314 315 315 315 315 315 315
286 278 271 266 264 262 258 258 260 265 270 275 279 283 286 288 290 291 292 294 295 296 296 298 298 299 301 303 305 307 308 310 310 311 311 311 310 310 311 311 311 311 311 311 311 311 312 312 312 311 310 310
286 280 272 267 265 264 262 261 262 265 269 274 277 281 285 287 289 291 292 292 293 294 294 295 295 296 297 299 301 303 304 305 306 306 307 307 307 308 308 309 309 310 310 309 309 309 309 308 308 307 306 306
286 280 273 268 265 265 264 264 264 266 269 273 277 280 284 286 288 290 291 291 292 292 292 293 293 293 294 296 297 299 300 301 302 303 303 304 305 306 307 307 307 307 307 306 307 306 306 305 305 305 304 304
283 278 273 270 267 266 265 265 266 268 270 273 277 280 283 286 287 289 290 291 291 291 291 291 291 291 291 292 294 296 298 299 300 301 302 303 303 304 304 305 304 304 304 303 303 303 303 304 303 303 303 303
283 278 273 270 269 268 266 267 268 268 270 274 277 280 283 285 286 287 289 290 290 290 290 290 289 289 288 290 291 293 295 297 298 299 300 301 301 302 302 302 301 300 301 300 300 301 301 302 302 302 302 301
284 278 274 272 270 268 267 268 269 270 272 275 277 280 282 283 285 287 288 288 288 288 288 288 287 286 286 287 289 290 293 294 296 297 298 299 300 300 300 300 299 298 297 297 298 298 300 300 299 299 299 297
287 282 278 274 271 270 270 271 270 272 274 276 278 280 281 282 285 286 286 287 287 287 286 285 284 284 285 285 287 289 291 293 295 296 297 298 298 298 298 297 296 295 295 296 297 297 298 298 297 297 296 294
288 284 281 276 274 274 274 273 273 274 276 278 279 280 281 282 284 285 286 286 286 285 284 283 282 282 283 285 286 288 290 292 293 295 295 295 296 295 295 295 295 294 295 296 297 296 297 297 296 296 294 294
287 286 283 280 278 277 276 275 276 277 278 279 280 281 282 283 284 284 285 285 285 284 282 282 281 281 283 284 286 287 289 291 292 293 294 294 293 293 293 293 294 293 295 296 296 297 298 297 298 298 296 297
289 287 284 282 279 277 277 277 277 278 279 280 281 281 281 282 283 284 284 284 284 283 282 281 281 282 283 283 285 286 288 289 291 291 292 292 291 291 291 291 292 292 293 294 295 296 298 298 298 298 298 298
290 287 284 282 281 280 279 278 278 279 279 281 281 281 281 282 283 283 283 283 283 282 282 282 282 283 284 283 284 286 288 288 289 289 289 289 288 288 288 289 290 291 292 292 293 296 297 298 297 296 297 297
290 288 287 285 284 282 280 279 280 280 282 282 281 281 282 283 282 282 282 282 281 281 281 282 283 284 284 283 284 286 287 287 287 286 286 286 286 287 288 288 289 289 290 291 293 296 297 297 297 296 297 298
293 292 290 289 287 284 283 283 284 284 284 283 283 283 283 283 283 281 281 280 280 279 280 281 283 283 283 283 284 285 286 286 285 284 283 283 284 286 287 287 287 287 288 290 293 294 296 297 296 297 298 300
295 293 291 290 290 289 288 288 288 287 286 284 284 283 283 283 282 280 279 279 279 279 279 280 282 282 282 282 283 284 284 284 283 281 281 281 282 283 285 286 286 287 288 289 292 293 295 295 295 296 298 300
293 292 291 292 292 291 292 292 291 290 286 284 283 282 282 281 280 279 279 278 277 278 279 280 281 282 282 281 281 282 282 282 281 279 278 279 281 281 281 284 285 287 288 289 290 292 293 293 293 294 296 300
291 291 292 294 292 293 296 295 292 289 285 283 282 282 282 280 280 280 280 279 279 279 280 280 281 282 281 280 280 280 280 281 279 277 277 278 280 279 279 281 284 286 288 289 289 290 291 291 292 293 294 297
290 291 292 293 294 296 298 294 290 288 286 285 285 284 283 283 283 284 284 284 282 281 280 280 281 282 282 281 280 279 280 280 278 277 277 277 277 277 278 279 282 285 287 289 290 291 291 289 289 290 292 293
290 292 292 292 294 295 294 292 289 288 288 287 287 287 287 286 287 287 289 288 286 283 281 280 280 281 281 281 280 279 278 277 276 276 276 276 276 276 277 279 281 283 286 288 290 294 295 294 292 290 290 292
291 293 291 290 291 291 290 291 289 288 289 289 289 291 290 289 289 290 292 291 287 284 281 280 279 280 280 279 278 278 277 276 275 275 275 275 275 275 275 277 279 280 283 285 288 293 295 297 299 297 296 294
290 290 288 287 287 287 288 290 291 290 292 293 294 295 294 293 293 293 292 289 286 283 281 280 280 280 280 279 278 277 276 276 275 274 274 273 274 275 275 277 278 279 280 282 285 288 289 293 298 297 297 295
289 287 286 286 285 285 286 289 291 292 296 300 299 298 298 297 294 291 289 288 286 284 283 282 283 283 282 281 279 278 277 277 276 274 274 273 273 274 276 277 278 278 279 280 281 282 284 288 289 286 290 294
289 287 286 285 284 284 286 288 291 294 298 302 301 300 300 298 294 290 289 288 288 287 287 286 286 286 284 283 281 279 278 276 276 275 274 274 274 274 276 278 278 278 279 280 279 279 279 279 279 282 287 290
296 291 289 287 286 285 286 287 291 296 299 300 300 300 301 300 297 293 289 289 289 290 289 288 287 286 285 283 282 279 278 277 276 275 274 274 274 275 276 278 279 279 281 280 279 279 279 278 277 279 281 281
Height
1549 1549 1549 1549 1549 1549 1549 1549 1549 1548 1548 1547 1546 1545 1544 1544 1543 1543 1542 1541 1540 1540 1539 1538 1537 1536 1534 1533 1532 1531 1530 1529 1528 1527 1526 1525 1524 1523 1521 1520 1519 1518 1517 1516 1515 1513 1512 1511 1509 1508 1507 1505
1548 1548 1548 1548 1548 1549 1549 1548 1548 1548 1547 1546 1546 1544 1544 1543 1543 1542 1541 1541 1540 1539 1538 1537 1536 1535 1534 1533 1531 1530 1530 1529 1528 1527 1526 1524 1523 1522 1521 1520 1518 1517 1516 1515 1514 1513 1511 1510 1509 1507 1506 1505
1548 1548 1548 1548 1548 1548 1548 1548 1547 1547 1547 1546 1545 1544 1543 1543 1542 1541 1541 1540 1539 1538 1537 1536 1535 1534 1533 1532 1531 1530 1529 1528 1527 1526 1525 1524 1523 1521 1520 1519 1518 1517 1515 1514 1513 1512 1510 1509 1508 1506 1505 1504
1547 1547 1547 1547 1547 1547 1547 1547 1547 1546 1546 1545 1545 1544 1543 1542 1542 1541 1540 1539 1538 1538 1536 1535 1534 1533 1532 1531 1530 1529 1528 1527 1526 1525 1524 1523 1522 1521 1519 1518 1517 1516 1514 1513 1512 1511 1509 1508 1507 1506 1505 1503
1546 1546 1546 1546 1546 1546 1546 1546 1546 1546 1545 1545 1544 1543 1542 1542 1541 1540 1539 1539 1538 1537 1536 1535 1534 1533 1531 1530 1529 1528 1527 1526 1525 1524 1523 1522 1521 1520 1518 1517 1516 1515 1513 1512 1511 1510 1509 1508 1506 1505 1504 1503
1545 1545 1545 1545 1545 1545 1545 1545 1545 1544 1544 1544 1543 1542 1542 1541 1540 1539 1538 1537 1537 1536 1535 1534 1533 1532 1531 1530 1528 1527 1526 1526 1525 1523 1522 1521 1520 1519 1517 1516 1515 1514 1513 1511 1510 1509 1508 1507 1506 1504 1503 1502
1544 1544 1544 1544 1544 1544 1544 1544 1544 1543 1543 1543 1542 1541 1541 1540 1539 1538 1537 1537 1536 1535 1534 1533 1532 1531 1530 1529 1528 1526 1525 1524 1523 1522 1521 1520 1519 1517 1516 1515 1514 1513 1512 1511 1510 1508 1507 1506 1504 1503 1502 1500
1543 1543 1543 1543 1542 1543 1543 1542 1542 1542 1542 1541 1541 1540 1539 1539 1538 1537 1536 1536 1535 1534 1533 1532 1531 1530 1529 1528 1526 1525 1524 1523 1522 1521 1520 1519 1518 1516 1515 1514 1513 1512 1511 1509 1508 1507 1506 1504 1503 1502 1500 1499
1542 1542 1541 1541 1541 1541 1541 1541 1541 1541 1540 1540 1540 1539 1538 1537 1537 1536 1535 1534 1534 1533 1532 1531 1530 1529 1528 1526 1525 1524 1523 1522 1521 1520 1519 1517 1516 1515 1514 1513 1512 1511 1509 1508 1507 1506 1504 1503 1502 1500 1499 1497
1540 1540 1540 1540 1540 1540 1540 1540 1540 1539 1539 1539 1538 1537 1536 1536 1535 1535 1534 1533 1532 1531 1530 1529 1528 1527 1526 1525 1524 1522 1521 1520 1519 1518 1517 1516 1515 1514 1512 1511 1510 1509 1507 1506 1505 1504 1502 1501 1500 1498 1497 1496
1539 1539 1539 1539 1539 1539 1539 1538 1538 1538 1537 1537 1536 1535 1535 1534 1534 1533 1532 1531 1530 1530 1529 1528 1527 1525 1524 1523 1522 1521 1520 1518 1517 1516 1515 1514 1513 1512 1510 1509 1508 1506 1505 1504 1502 1501 1500 1499 1497 1496 1495 1494
1538 1538 1537 1537 1537 1537 1537 1536 1536 1536 1535 1535 1534 1534 1533 1532 1532 1531 1530 1530 1529 1528 1527 1526 1525 1524 1522 1521 1520 1519 1517 1516 1515 1514 1513 1512 1511 1509 1508 1507 1505 1504 1502 1501 1500 1499 1497 1496 1495 1493 1492 1491
1536 1536 1536 1535 1535 1535 1535 1535 1534 1534 1533 1533 1532 1532 1531 1530 1529 1529 1528 1527 1527 1526 1525 1524 1523 1522 1520 1519 1518 1516 1515 1514 1513 1512 1511 1509 1508 1507 1505 1504 1503 1501 1500 1499 1497 1496 1495 1494 1492 1491 1490 1488
1534 1534 1533 1533 1533 1533 1533 1532 1532 1531 1531 1531 1530 1530 1529 1528 1527 1527 1526 1525 1524 1523 1523 1521 1520 1519 1518 1517 1515 1514 1513 1511 1510 1509 1508 1507 1506 1504 1503 1502 1500 1499 1497 1496 1495 1493 1492 1491 1490 1488 1487 1486
1531 1531 1531 1531 1531 1530 1530 1530 1529 1528 1528 1528 1528 1527 1526 1525 1525 1524 1523 1523 1522 1521 1520 1519 1518 1517 1515 1514 1513 1511 1510 1509 1508 1506 1505 1504 1503 1501 1500 1499 1497 1496 1495 1494 1493 1491 1490 1488 1487 1486 1484 1483
1529 1529 1529 1529 1528 1528 1528 1527 1526 1526 1526 1525 1525 1524 1523 1523 1522 1521 1521 1520 1519 1518 1517 1516 1515 1514 1513 1511 1510 1508 1507 1506 1505 1504 1502 1501 1500 1498 1497 1496 1495 1493 1492 1491 1490 1489 1487 1486 1484 1483 1481 1480
1527 1527 1526 1526 1525 1525 1525 1524 1523 1523 1523 1523 1522 1521 1521 1520 1519 1519 1518 1517 1517 1516 1515 1514 1513 1511 1510 1509 1507 1506 1505 1504 1502 1501 1500 1498 1497 1496 1494 1493 1492 1491 1489 1488 1487 1486 1484 1483 1481 1480 1478 1477
1525 1525 1524 1523 1523 1523 1522 1521 1521 1520 1520 1520 1519 1519 1518 1517 1517 1516 1516 1515 1514 1513 1512 1511 1510 1509 1508 1506 1504 1503 1502 1501 1500 1498 1497 1496 1494 1493 1492 1490 1489 1488 1487 1486 1484 1483 1482 1480 1479 1477 1475 1474
1523 1522 1522 1521 1521 1520 1520 1519 1518 1518 1518 1517 1516 1516 1515 1515 1514 1514 1513 1512 1511 1510 1509 1508 1507 1506 1505 1504 1502 1500 1499 1498 1496 1495 1494 1493 1491 1490 1489 1488 1486 1485 1483 1482 1481 1480 1479 1477 1475 1474 1473 1471
1521 1520 1520 1519 1519 1518 1517 1516 1516 1515 1515 1515 1514 1513 1512 1512 1511 1511 1510 1509 1508 1507 1506 1505 1504 1503 1502 1500 1499 1497 1496 1494 1493 1492 1491 1490 1488 1486 1486 1484 1483 1481 1480 1478 1477 1477 1475 1474 1472 1470 1469 1468
1519 1518 1518 1517 1516 1515 1515 1514 1513 1513 1513 1512 1511 1510 1510 1509 1509 1508 1507 1506 1505 1504 1502 1501 1500 1500 1499 1497 1495 1494 1492 1491 1490 1489 1487 1487 1485 1483 1482 1481 1479 1478 1476 1475 1473 1473 1472 1471 1469 1467 1466 1464
1517 1517 1516 1515 1514 1513 1512 1512 1511 1511 1510 1509 1509 1508 1507 1507 1506 1504 1504 1503 1502 1500 1499 1498 1497 1496 1495 1493 1492 1490 1489 1488 1487 1485 1484 1483 1482 1480 1478 1477 1476 1474 1473 1471 1470 1469 1468 1467 1465 1464 1462 1461
1516 1515 1514 1513 1512 1511 1510 1510 1509 1509 1508 1507 1506 1505 1504 1504 1502 1501 1501 1500 1498 1497 1495 1494 1493 1492 1491 1490 1488 1487 1485 1485 1484 1482 1481 1479 1479 1477 1475 1473 1472 1470 1469 1467 1465 1464 1464 1463 1462 1460 1459 1457
1514 1513 1512 1511 1510 1509 1508 1508 1507 1506 1505 1504 1503 1502 1501 1500 1499 1499 1498 1497 1495 1494 1492 1491 1490 1489 1488 1486 1485 1483 1482 1481 1481 1479 1477 1476 1475 1474 1472 1471 1469 1467 1465 1463 1461 1460 1459 1459 1458 1456 1455 1454
1512 1511 1510 1509 1508 1507 1507 1506 1505 1504 1502 1501 1501 1499 1498 1497 1496 1496 1495 1494 1492 1491 1489 1488 1486 1485 1484 1483 1481 1480 1479 1478 1477 1476 1474 1473 1472 1471 1469 1468 1467 1465 1462 1459 1456 1455 1454 1454 1454 1452 1451 1450
1510 1509 1508 1507 1506 1505 1504 1503 1502 1501 1500 1499 1498 1497 1495 1494 1494 1493 1492 1491 1489 1488 1486 1485 1483 1482 1481 1480 1478 1476 1476 1475 1474 1472 1471 1470 1469 1467 1466 1464 1464 1462 1459 1456 1453 1450 1447 1446 1446 1447 1447 1446
1508 1507 1506 1505 1504 1502 1501 1501 1499 1498 1498 1496 1495 1494 1493 1492 1491 1490 1489 1488 1486 1485 1483 1482 1480 1479 1478 1477 1475 1474 1472 1471 1470 1469 1468 1466 1465 1464 1462 1460 1460 1460 1458 1454 1451 1449 1444 1440 1438 1437 1438 1439
1506 1505 1504 1502 1501 1500 1499 1498 1497 1495 1495 1494 1492 1492 1491 1490 1489 1488 1487 1485 1484 1482 1481 1479 1478 1477 1475 1474 1473 1471 1469 1468 1467 1465 1464 1462 1461 1459 1458 1456 1455 1455 1455 1452 1450 1448 1443 1440 1436 1432 1430 1431
1503 1502 1501 1500 1499 1497 1496 1495 1494 1493 1492 1491 1490 1489 1489 1488 1487 1485 1484 1483 1481 1479 1478 1476 1475 1474 1472 1471 1469 1467 1465 1464 1463 1461 1460 1458 1457 1455 1453 1452 1451 1450 1450 1449 1447 1446 1442 1440 1436 1430 1428 1425
1500 1499 1498 1497 1496 1494 1493 1492 1491 1490 1489 1489 1488 1486 1486 1485 1484 1483 1481 1480 1478 1477 1475 1474 1472 1471 1469 1468 1466 1464 1462 1460 1459 1457 1456 1454 1452 1451 1449 1447 1445 1444 1445 1444 1442 1442 1440 1438 1434 1429 1427 1424
1496 1495 1495 1494 1493 1492 1491 1488 1488 1488 1487 1486 1485 1484 1483 1483 1481 1480 1478 1477 1476 1474 1472 1470 1469 1467 1465 1464 1462 1460 1458 1456 1455 1454 1452 1450 1448 1446 1445 1443 1440 1438 1439 1439 1437 1436 1435 1433 1432 1428 1426 1423